Overview Statistics Trail Chart Weather Telemetry Raw packets
 

This is the latest recevied weather packets stored in our database for station/object DM8MH-13. If no packets are shown the sender has not sent any weather packets the latest 10 day(s).

<< 4 5 6 7 8 9 10 >>
Time Temp. Humidity Pressure Rain* Wind** Luminosity Snow
1788609071 20.56° C 57% 1018.5 hPa 0 mm - 224 W/m² -
1788608470 20.56° C 56% 1018.4 hPa 0 mm - 113 W/m² -
1788607871 20.56° C 53% 1018.4 hPa 0 mm - 202 W/m² -
1788607272 20.56° C 56% 1018.4 hPa 0 mm - 270 W/m² -
1788606670 20.56° C 57% 1018.4 hPa 0 mm - 625 W/m² -
1788606079 20° C 58% 1018.5 hPa 0 mm - 222 W/m² -
1788605470 20° C 58% 1018.5 hPa 0 mm - 171 W/m² -
1788604870 20.56° C 59% 1018.4 hPa 0 mm - 331 W/m² -
1788604270 20.56° C 59% 1018.3 hPa 0 mm - 810 W/m² -
1788603671 19.44° C 65% 1018.4 hPa 0 mm - 747 W/m² -
1788603071 18.89° C 65% 1018.5 hPa 0 mm - 95 W/m² -
1788602470 19.44° C 63% 1018.4 hPa 0 mm - 172 W/m² -
1788601870 18.89° C 66% 1018.4 hPa 0 mm - 252 W/m² -
1788601270 18.89° C 68% 1018.3 hPa 0 mm - 99 W/m² -
1788600670 18.89° C 68% 1018.1 hPa 0 mm - 103 W/m² -
1788600071 18.33° C 70% 1018 hPa 0 mm - 167 W/m² -
1788599470 18.33° C 69% 1017.9 hPa 0 mm - 214 W/m² -
1788598870 18.33° C 69% 1017.9 hPa 0 mm - 146 W/m² -
1788598270 18.89° C 68% 1017.7 hPa 0 mm - 279 W/m² -
1788597670 18.89° C 69% 1017.8 hPa 0 mm - 187 W/m² -
1788597071 18.33° C 72% 1017.7 hPa 0 mm - 526 W/m² -
1788596471 18.33° C 72% 1017.6 hPa 0 mm - 503 W/m² -
1788595871 17.78° C 75% 1017.6 hPa 0 mm - 436 W/m² -
1788595270 17.78° C 75% 1017.5 hPa 0 mm - 351 W/m² -
1788594670 17.78° C 77% 1017.5 hPa 0 mm - 409 W/m² -

* Rain latest hour (hover to see other rain measurements)
** Current wind speed in m/s (hover to see current wind gust speed)